Starlink 31801

operational
NORAD ID: 59647 Int'l Des: 2024-082 Owner: SPXS Country: US Constellation: starlink
LEOCIRCULAR

About Starlink 31801

Description loading...

Live Position

Loading 3D Globe...

Upcoming Passes

Altitude History

Altitude vs Time

uPlot chart will show altitude changes over time

Two-Line Element Set

1 59647U 24082S 25304.00784639 .00001157 00000-0 51571-4 0 9995
2 59647 42.9996 152.6185 0001089 265.6659 94.4069 15.27583034 85022
Epoch: Oct 31, 2025 • Age: 19 hours

Current Status

Altitude 485.9 km
Velocity 7.62 km/s
Sub-Earth Point -15.84°S, 166.51°E
Launch Date May 3, 2024
Age 1.4 years
Type internet

Technical Details

Classification Payload
Mass 730.00 kg
Dry Mass 700.00 kg
Total Mass 730.00 kg
Length 0.30 m
Diameter 4.10 m
Span 29.00 m
Shape Box + pan
Manufacturer SPXS
Bus Type Starlink V2M
Phase Status In Orbit
Owner/State SPXS/US

Large Constellations

Loading constellations...